Skip Page Navigation
NASA JPL Caltech
NASA Logo - Jet Propulsion Laboratory + View the NASA Portal
+ Center for Near-Earth Object Studies
JPL Home Earth Solar System Stars & Galaxies Technology
JPL Solar System Dynamics
BODIES ORBITS EPHEMERIDES TOOLS PHYSICAL DATA DISCOVERY FAQ SITE MAP
IMPORTANT: The SSD Announcement email list is now available. Major changes are coming in the near future, including possible hostname and/or URL changes. To be notified of such changes, subscribe to this email list.

Please visit this page for more details.


JPL Small-Body Database Browser
Search: [ help ]  
324621 (2007 AE10)
Classification: Main-belt Asteroid          SPK-ID: 2324621
Ephemeris | Orbit Diagram | Orbital Elements | Mission Design | Physical Parameters | Discovery Circumstances | Close-Approach Data ]

[ show orbit diagram ]
Orbital Elements at Epoch 2458600.5 (2019-Apr-27.0) TDB
Reference: JPL 9 (heliocentric ecliptic J2000)
 Element Value Uncertainty (1-sigma)   Units 
e .3180847231029817 5.1357e-08  
a 2.760497450816345 1.5609e-08 au
q 1.882425383546941 1.4242e-07 au
i 8.859876126871482 7.3616e-06 deg
node 115.2436458857273 3.5337e-05 deg
peri 282.2616897661274 4.2822e-05 deg
M 284.4408489015091 1.6244e-05 deg
tp 2458952.112269818813
(2020-Apr-12.61226982)
7.6059e-05 TDB
period 1675.249328433769
4.59
1.4209e-05
3.89e-08
d
yr
n .2148933856529718 1.8227e-09 deg/d
Q 3.638569518085749 2.0575e-08 au
  Orbit Determination Parameters
   # obs. used (total)      199  
   data-arc span      6567 days (17.98 yr)  
   first obs. used      2001-08-29  
   last obs. used      2019-08-22  
   planetary ephem.      DE431  
   SB-pert. ephem.      SB431-N16  
   condition code      0  
   norm. resid. RMS      .57513  
   source      ORB  
   producer      Otto Matic  
   solution date      2019-Sep-24 06:13:22  

Additional Information
 Earth MOID = .913169 au 
 Jupiter MOID = 1.87847 au 
 T_jup = 3.250 
[ show covariance matrix ]

Ephemeris | Orbit Diagram | Orbital Elements | Mission Design | Physical Parameters | Discovery Circumstances | Close-Approach Data ]

Physical Parameter Table
Parameter Symbol Value Units Sigma Reference Notes
absolute magnitude H 16.9   n/a MPO408337  

324621 (2007 AE10)          Discovered 2007-Jan-09 by Mt. Lemmon Survey at Mount Lemmon
Reference: 20120406/Numbers.arcLast Updated: 2012-04-09

[ show close-approach data ]
Ephemeris | Orbit Diagram | Orbital Elements | Mission Design | Physical Parameters | Discovery Circumstances | Close-Approach Data ]
ABOUT SSD CREDITS/AWARDS PRIVACY/COPYRIGHT GLOSSARY LINKS
FirstGov 2019-Oct-20 02:18 UT
(server date/time)  
NASA Home Page
Site Manager:   Ryan S. Park
Webmaster  Alan B. Chamberlin